When you browse on this site, cookies collect data to enhance your experience and personalize the content and advertising you see.
Visit our Privacy Policy to learn more. By continuing to use the site, you agree to this use of cookies and data.
  • In Slovakia
  • List of Countries
  • For 7 days
  • Water Temperature
  • Satellite Maps
  • Weather Map
  • Weather Widgets
  • user-avatar
    Login

    Hourly Weather Uige

    Today, 25 May, Saturday

    Time Temperature Precipitation Wind Pressure Humidity
    00:00 +21°C° 1.2 mm 0 mps 691 mmHg 94%
    01:00 +22°C° 0 mm 1 mps 691 mmHg 98%
    02:00 +22°C° 0.4 mm 1 mps 691 mmHg 97%
    03:00 +22°C° 0.4 mm 1 mps 691 mmHg 97%
    04:00 +22°C° 0.4 mm 1 mps 691 mmHg 97%
    05:00 +23°C° 0.1 mm 1 mps 691 mmHg 95%
    06:00 +23°C° 0.1 mm 1 mps 691 mmHg 93%
    07:00 +23°C° 0 mm 1 mps 692 mmHg 90%
    08:00 +26°C° 0.3 mm 1 mps 692 mmHg 77%
    09:00 +28°C° 0.3 mm 2 mps 692 mmHg 65%
    10:00 +30°C° 0.3 mm 2 mps 693 mmHg 53%
    11:00 +32°C° 0 mm 2 mps 692 mmHg 46%
    12:00 +34°C° 0 mm 2 mps 692 mmHg 39%
    13:00 +35°C° 0 mm 3 mps 691 mmHg 33%
    14:00 +34°C° 0 mm 2 mps 691 mmHg 34%
    15:00 +34°C° 0 mm 2 mps 691 mmHg 35%
    16:00 +33°C° 0 mm 1 mps 690 mmHg 36%
    17:00 +31°C° 0 mm 1 mps 690 mmHg 41%
    18:00 +28°C° 0 mm 1 mps 690 mmHg 47%
    19:00 +26°C° 0 mm 1 mps 690 mmHg 52%
    20:00 +25°C° 0 mm 1 mps 690 mmHg 53%
    21:00 +25°C° 0 mm 1 mps 690 mmHg 53%
    22:00 +24°C° 0 mm 1 mps 690 mmHg 54%
    23:00 +24°C° 0 mm 1 mps 691 mmHg 55%

    Tomorrow, 26 May, Sunday

    Time Temperature Precipitation Wind Pressure Humidity
    00:00 +21°C° 0 mm 0 mps 691 mmHg 56%
    01:00 +21°C° 0 mm 0 mps 691 mmHg 56%
    02:00 +20°C° 0 mm 0 mps 691 mmHg 59%
    03:00 +20°C° 0 mm 0 mps 690 mmHg 62%
    04:00 +19°C° 0 mm 0 mps 690 mmHg 64%
    05:00 +19°C° 0 mm 0 mps 691 mmHg 64%
    06:00 +20°C° 0 mm 0 mps 691 mmHg 64%
    07:00 +22°C° 0 mm 1 mps 691 mmHg 64%
    08:00 +24°C° 0 mm 1 mps 692 mmHg 56%
    09:00 +27°C° 0 mm 2 mps 692 mmHg 47%
    10:00 +29°C° 0 mm 2 mps 693 mmHg 39%
    11:00 +30°C° 0 mm 2 mps 692 mmHg 36%
    12:00 +31°C° 0 mm 2 mps 692 mmHg 34%
    13:00 +34°C° 0 mm 2 mps 692 mmHg 31%
    14:00 +34°C° 0 mm 2 mps 691 mmHg 33%
    15:00 +32°C° 0 mm 1 mps 690 mmHg 34%
    16:00 +32°C° 0 mm 1 mps 690 mmHg 36%
    17:00 +30°C° 0 mm 1 mps 690 mmHg 41%
    18:00 +28°C° 0 mm 1 mps 690 mmHg 46%
    19:00 +23°C° 0 mm 0 mps 690 mmHg 51%
    20:00 +23°C° 0 mm 0 mps 690 mmHg 52%
    21:00 +22°C° 0 mm 0 mps 690 mmHg 54%
    22:00 +23°C° 0 mm 1 mps 691 mmHg 55%
    23:00 +23°C° 0 mm 1 mps 691 mmHg 58%

    Day after tomorrow, 27 May, Monday

    Time Temperature Precipitation Wind Pressure Humidity
    00:00 +22°C° 0 mm 1 mps 690 mmHg 60%
    01:00 +22°C° 0 mm 1 mps 690 mmHg 62%
    02:00 +21°C° 0 mm 1 mps 690 mmHg 65%
    03:00 +21°C° 0 mm 1 mps 690 mmHg 68%
    04:00 +20°C° 0 mm 1 mps 690 mmHg 71%
    05:00 +21°C° 0 mm 1 mps 690 mmHg 72%
    06:00 +21°C° 0 mm 1 mps 690 mmHg 73%
    07:00 +21°C° 0 mm 1 mps 691 mmHg 73%
    08:00 +24°C° 0 mm 1 mps 692 mmHg 62%
    09:00 +28°C° 0 mm 1 mps 692 mmHg 50%
    10:00 +31°C° 0 mm 2 mps 693 mmHg 38%
    11:00 +32°C° 0 mm 2 mps 692 mmHg 34%
    12:00 +33°C° 0 mm 1 mps 692 mmHg 30%
    13:00 +35°C° 0 mm 1 mps 691 mmHg 26%
    14:00 +34°C° 0 mm 1 mps 691 mmHg 28%
    15:00 +34°C° 0 mm 1 mps 690 mmHg 30%
    16:00 +32°C° 0 mm 0 mps 690 mmHg 31%
    17:00 +29°C° 0 mm 0 mps 690 mmHg 38%
    18:00 +26°C° 0 mm 0 mps 690 mmHg 45%
    19:00 +23°C° 0 mm 0 mps 690 mmHg 53%
    20:00 +23°C° 0 mm 0 mps 690 mmHg 56%
    21:00 +22°C° 0 mm 0 mps 690 mmHg 59%
    22:00 +22°C° 0 mm 0 mps 691 mmHg 63%
    23:00 +21°C° 0 mm 0 mps 691 mmHg 66%

    28 May, Tuesday

    Time Temperature Precipitation Wind Pressure Humidity
    00:00 +21°C° 0 mm 0 mps 690 mmHg 70%
    01:00 +20°C° 0 mm 0 mps 690 mmHg 73%
    02:00 +19°C° 0 mm 0 mps 690 mmHg 78%
    03:00 +19°C° 0 mm 0 mps 690 mmHg 82%
    04:00 +18°C° 0 mm 0 mps 690 mmHg 86%
    05:00 +19°C° 0 mm 0 mps 690 mmHg 86%
    06:00 +19°C° 0 mm 0 mps 691 mmHg 85%
    07:00 +19°C° 0 mm 0 mps 691 mmHg 85%
    08:00 +22°C° 0 mm 0 mps 692 mmHg 74%
    09:00 +27°C° 0 mm 1 mps 692 mmHg 63%
    10:00 +31°C° 0 mm 1 mps 693 mmHg 51%
    11:00 +32°C° 0 mm 1 mps 693 mmHg 47%
    12:00 +34°C° 0 mm 1 mps 692 mmHg 42%
    13:00 +35°C° 0 mm 1 mps 692 mmHg 38%
    14:00 +34°C° 0 mm 1 mps 691 mmHg 42%
    15:00 +32°C° 0 mm 1 mps 690 mmHg 46%
    16:00 +31°C° 0 mm 1 mps 689 mmHg 50%
    17:00 +29°C° 0 mm 1 mps 690 mmHg 57%
    18:00 +27°C° 0 mm 1 mps 690 mmHg 64%
    19:00 +25°C° 0 mm 1 mps 690 mmHg 71%
    20:00 +24°C° 0.1 mm 1 mps 691 mmHg 76%
    21:00 +24°C° 0.1 mm 1 mps 691 mmHg 81%
    22:00 +23°C° 0.1 mm 1 mps 691 mmHg 86%
    23:00 +22°C° 0 mm 1 mps 691 mmHg 90%

    29 May, Wednesday

    Time Temperature Precipitation Wind Pressure Humidity
    00:00 +22°C° 0 mm 1 mps 691 mmHg 93%
    01:00 +21°C° 0 mm 1 mps 691 mmHg 97%
    02:00 +21°C° 0 mm 1 mps 690 mmHg 97%
    03:00 +21°C° 0 mm 1 mps 690 mmHg 98%
    04:00 +21°C° 0 mm 1 mps 690 mmHg 98%
    05:00 +21°C° 0 mm 1 mps 690 mmHg 96%
    06:00 +22°C° 0 mm 1 mps 691 mmHg 93%
    07:00 +22°C° 0 mm 1 mps 691 mmHg 91%
    08:00 +24°C° 0 mm 1 mps 692 mmHg 80%
    09:00 +27°C° 0 mm 1 mps 692 mmHg 69%
    10:00 +29°C° 0 mm 1 mps 693 mmHg 59%
    11:00 +31°C° 0 mm 1 mps 692 mmHg 53%
    12:00 +32°C° 0 mm 1 mps 692 mmHg 48%
    13:00 +34°C° 0 mm 1 mps 691 mmHg 42%
    14:00 +32°C° 0.1 mm 1 mps 691 mmHg 48%
    15:00 +28°C° 0.1 mm 0 mps 690 mmHg 54%
    16:00 +27°C° 0.1 mm 0 mps 689 mmHg 60%
    17:00 +26°C° 0.5 mm 0 mps 690 mmHg 66%
    18:00 +24°C° 0.5 mm 0 mps 690 mmHg 72%
    19:00 +23°C° 0.5 mm 0 mps 691 mmHg 78%
    20:00 +24°C° 0.7 mm 1 mps 691 mmHg 83%
    21:00 +24°C° 0.7 mm 1 mps 691 mmHg 87%
    22:00 +23°C° 0.7 mm 1 mps 692 mmHg 91%
    23:00 +22°C° 0 mm 1 mps 691 mmHg 93%

    30 May, Thursday

    Time Temperature Precipitation Wind Pressure Humidity
    00:00 +22°C° 0 mm 1 mps 691 mmHg 95%
    01:00 +21°C° 0 mm 1 mps 691 mmHg 98%
    02:00 +21°C° 0 mm 1 mps 690 mmHg 98%
    03:00 +21°C° 0 mm 1 mps 690 mmHg 98%
    04:00 +20°C° 0 mm 1 mps 690 mmHg 99%
    05:00 +20°C° 0 mm 1 mps 691 mmHg 96%
    06:00 +18°C° 0 mm 0 mps 691 mmHg 94%
    07:00 +18°C° 0 mm 0 mps 691 mmHg 92%
    08:00 +23°C° 0 mm 1 mps 692 mmHg 76%
    09:00 +27°C° 0 mm 1 mps 693 mmHg 60%
    10:00 +30°C° 0 mm 1 mps 693 mmHg 44%
    11:00 +31°C° 0 mm 1 mps 693 mmHg 41%
    12:00 +33°C° 0 mm 1 mps 692 mmHg 38%
    13:00 +34°C° 0 mm 1 mps 691 mmHg 35%
    14:00 +34°C° 0 mm 1 mps 691 mmHg 36%
    15:00 +33°C° 0 mm 1 mps 690 mmHg 37%
    16:00 +32°C° 0 mm 1 mps 690 mmHg 38%
    17:00 +30°C° 0 mm 1 mps 690 mmHg 46%
    18:00 +27°C° 0 mm 1 mps 690 mmHg 54%
    19:00 +25°C° 0 mm 1 mps 690 mmHg 62%
    20:00 +24°C° 0 mm 1 mps 691 mmHg 66%
    21:00 +23°C° 0 mm 1 mps 691 mmHg 69%
    22:00 +22°C° 0 mm 1 mps 691 mmHg 72%
    23:00 +21°C° 0 mm 1 mps 691 mmHg 75%
    Show more